Location: Dal�� Lhota
(48.7500°N, 14.0167°E)
Time: 01:08:47
(UTC+00:00)

Vanguard 3 - Pass Details

Date: 06 August 2021
Orbit: 510 x 3260 km, 33.3° (Epoch: 16 September)

Event Time Altitude Azimuth Distance (km) Brightness Sun altitude
Rises 20:38:56 0° 272° (W) 6,381 12.3 -16.7°
Reaches altitude 10° 20:43:30 10° 263° (W) 5,668 11.8 -17.2°
Maximum altitude 20:58:14 32° 210° (SSW) 4,586 10.7 -18.5°
Enters shadow 21:08:41 20° 169° (S) 5,270 10.7 -19.5°
Drops below altitude 10° 21:13:46 10° 157° (SSE) 5,929 - -19.9°
Sets 21:18:46 0° 148° (SSE) 6,697 - -20.3°
